Pompano Beach, FL

9:05 AM EDT on May 24, 2017 (GMT -0400)
Pompano Beach

Weather History for KPMP - January, 2015

Change the Weather History Date:

Saturday, January 3, 2015

  Actual Average Record
Temperature  
Mean Temperature 80 °F -  
Max Temperature 82 °F 78 °F 85 °F (1967)
Min Temperature 77 °F 62 °F 36 °F (1962)
Cooling Degree Days 14    
Growing Degree Days 30 (Base 50)    
Moisture  
Dew Point 71 °F    
Average Humidity 75    
Maximum Humidity 79    
Minimum Humidity 67    
Precipitation  
Precipitation 0.00 in - - ()
Sea Level Pressure  
Sea Level Pressure 30.21 in    
Wind  
Wind Speed 14 mph (SE)    
Max Wind Speed 17 mph    
Max Gust Speed 26 mph    
Visibility 10 miles    
Events      
Averages and records for this station are not official NWS values.
T = Trace of Precipitation, MM = Missing Value Source: NWS Daily Summary

Daily Weather History Graph

Daily Weather History Graph

Search for Another Location

Airport or City:

Trip Planner

Search our weather history database for the weather conditions in past years. The results will help you decide how hot, cold, wet, or windy it might be!

Date:

Astronomy

Jan. 03, 2015 Rise Set
Actual Time 7:08 AM EST 5:41 PM EST
Civil Twilight 6:43 AM EST 6:06 PM EST
Nautical Twilight 6:14 AM EST 6:35 PM EST
Astronomical Twilight 5:46 AM EST 7:03 PM EST
Moon 4:42 PM EST (1/3) 5:35 AM EST (1/3)
Length of Visible Light 11h 23m
Length of Day
10h 32m
Waxing Gibbous, 98% of the Moon is Illuminated
Jan 3
Waxing Gibbous
Jan 4
Full
Jan 13
Last Quarter
Jan 20
New
Jan 26
First Quarter

Hourly Weather History & Observations

Time (EST) Temp. Heat Index Dew Point Humidity Pressure Visibility Wind Dir Wind Speed Gust Speed Precip Events Conditions
12:53 AM 78.1 °F - - N/A% 30.19 in 10.0 mi SE 13.8 mph - N/A   Clear
1:53 AM 77.0 °F - - N/A% 30.18 in 10.0 mi ESE 12.7 mph - N/A   Partly Cloudy
2:53 AM 77.0 °F - - N/A% 30.17 in 10.0 mi ESE 13.8 mph - N/A   Partly Cloudy
3:53 AM 78.1 °F - - N/A% 30.18 in 10.0 mi ESE 15.0 mph - N/A   Clear
4:53 AM 78.1 °F - - N/A% 30.19 in 10.0 mi ESE 13.8 mph - N/A   Partly Cloudy
5:53 AM 78.1 °F - - N/A% 30.20 in 10.0 mi SE 16.1 mph 21.9 mph N/A   Partly Cloudy
6:53 AM 78.1 °F - - N/A% 30.21 in 10.0 mi SE 16.1 mph - N/A   Clear
7:53 AM 79.0 °F - - N/A% 30.23 in 10.0 mi SE 13.8 mph 25.3 mph N/A   Partly Cloudy
8:53 AM 80.1 °F - - N/A% 30.25 in 10.0 mi SE 13.8 mph - N/A   Partly Cloudy
9:53 AM 82.0 °F - - N/A% 30.26 in 10.0 mi SE 15.0 mph 26.5 mph N/A   Mostly Cloudy
10:53 AM 82.0 °F - - N/A% 30.25 in 10.0 mi SE 17.3 mph - N/A   Mostly Cloudy
11:53 AM 82.0 °F - - N/A% 30.23 in 10.0 mi SE 17.3 mph 25.3 mph N/A   Mostly Cloudy
12:53 PM 82.0 °F - - N/A% 30.21 in 10.0 mi SE 15.0 mph 24.2 mph N/A   Partly Cloudy
1:53 PM 82.0 °F - - N/A% 30.19 in 10.0 mi SE 17.3 mph - N/A   Scattered Clouds
2:53 PM 82.0 °F - - N/A% 30.19 in 10.0 mi SE 17.3 mph - N/A   Scattered Clouds
3:53 PM 82.9 °F 87.5 °F 71.1 °F 67% 30.20 in 10.0 mi SE 12.7 mph - N/A   Unknown
4:53 PM 80.1 °F 83.2 °F 70.0 °F 71% 30.21 in 10.0 mi ESE 11.5 mph - N/A   Scattered Clouds
5:53 PM 79.0 °F - 70.0 °F 74% 30.22 in 10.0 mi SE 8.1 mph - N/A   Partly Cloudy
6:53 PM 79.0 °F - 71.1 °F 77% 30.22 in 10.0 mi ESE 10.4 mph - N/A   Scattered Clouds
7:53 PM 79.0 °F - 72.0 °F 79% 30.23 in 10.0 mi ESE 11.5 mph - N/A   Partly Cloudy
8:53 PM 78.1 °F - 71.1 °F 79% 30.23 in 10.0 mi ESE 12.7 mph - N/A   Clear
9:53 PM 79.0 °F - 72.0 °F 79% 30.24 in 10.0 mi ESE 11.5 mph 23.0 mph N/A   Partly Cloudy
10:53 PM 79.0 °F - 71.1 °F 77% 30.24 in 10.0 mi SE 13.8 mph - N/A   Partly Cloudy
11:53 PM 79.0 °F - 70.0 °F 74% 30.22 in 10.0 mi SE 12.7 mph 24.2 mph N/A   Clear